| time (UTC) | temp F | wind direction | speed knots | gust knots | rain 1hr in | rain 24hr in | rain mn in | humidity % | barometer mb |
| 20260504081528 | 65 | 350 | 0.0 | 5.2 | 0.00 | 0.04 | 0.00 | 76 | 1014.9 |
| 20260504044619 | 57 | 305 | 0.0 | 0.0 | 0.00 | 0.04 | 0.00 | 90 | 1015.1 |
| 20260504043057 | 57 | 305 | 0.0 | 0.0 | 0.00 | 0.04 | 0.00 | 90 | 1015.3 |
| 20260504041556 | 57 | 305 | 0.0 | 0.0 | 0.00 | 0.04 | 0.00 | 90 | 1015.3 |
| 20260504040110 | 57 | 305 | 0.0 | 0.0 | 0.00 | 0.04 | 0.00 | 90 | 1015.3 |
| 20260504034604 | 57 | 305 | 0.0 | 0.0 | 0.00 | 0.04 | 0.00 | 90 | 1015.6 |
| 20260504033055 | 57 | 305 | 0.0 | 0.0 | 0.00 | 0.04 | 0.00 | 90 | 1015.5 |
| 20260504031553 | 57 | 305 | 0.0 | 0.0 | 0.00 | 0.04 | 0.00 | 90 | 1015.8 |
| 20260504030053 | 57 | 305 | 0.0 | 0.0 | 0.00 | 0.04 | 0.00 | 90 | 1015.8 |
| 20260504024552 | 57 | 307 | 0.0 | 0.0 | 0.00 | 0.04 | 0.00 | 90 | 1015.6 |
| 20260504023051 | 57 | 305 | 0.0 | 0.0 | 0.00 | 0.04 | 0.00 | 90 | 1015.5 |
| 20260504021551 | 57 | 305 | 0.0 | 0.0 | 0.00 | 0.04 | 0.00 | 90 | 1015.5 |
| 20260504020049 | 57 | 305 | 0.0 | 0.0 | 0.00 | 0.04 | 0.00 | 90 | 1015.6 |
| 20260504014548 | 57 | 305 | 0.0 | 0.0 | 0.00 | 0.04 | 0.00 | 90 | 1015.7 |
| 20260504013053 | 57 | 304 | 0.0 | 0.0 | 0.00 | 0.04 | 0.00 | 90 | 1015.7 |
| 20260504011545 | 57 | 304 | 0.0 | 0.0 | 0.00 | 0.04 | 0.00 | 91 | 1016.0 |
| 20260504010051 | 57 | 304 | 0.0 | 0.0 | 0.00 | 0.04 | 0.00 | 91 | 1015.9 |
| 20260504004542 | 57 | 311 | 0.0 | 0.0 | 0.00 | 0.04 | 0.00 | 91 | 1016.1 |
| 20260504003040 | 57 | 305 | 2.6 | 5.2 | 0.00 | 0.04 | 0.00 | 91 | 1016.3 |
| 20260504001540 | 57 | 299 | 0.0 | 0.0 | 0.00 | 0.04 | 0.00 | 91 | 1016.4 |
| 20260504000042 | 57 | 300 | 0.0 | 3.5 | 0.00 | 0.04 | 0.00 | 91 | 1016.4 |
| 20260503234538 | 57 | 342 | 0.0 | 0.0 | 0.00 | 0.04 | 0.00 | 91 | 1016.4 |
| 20260503233039 | 57 | 314 | 0.0 | 0.0 | 0.00 | 0.04 | 0.00 | 91 | 1016.6 |
| 20260503231536 | 57 | 319 | 0.0 | 0.0 | 0.00 | 0.04 | 0.00 | 91 | 1016.7 |
| 20260503230035 | 57 | 320 | 0.0 | 0.0 | 0.00 | 0.04 | 0.00 | 91 | 1016.7 |
| 20260503224535 | 57 | 309 | 0.0 | 0.0 | 0.00 | 0.04 | 0.00 | 91 | 1016.8 |
| 20260503223036 | 57 | 312 | 0.0 | 0.0 | 0.00 | 0.04 | 0.00 | 91 | 1016.8 |
| 20260503221533 | 56 | 328 | 0.0 | 0.0 | 0.00 | 0.04 | 0.00 | 91 | 1016.8 |
| 20260503220030 | 56 | 290 | 0.0 | 7.0 | 0.00 | 0.04 | 0.00 | 91 | 1016.9 |
| 20260503214529 | 56 | 306 | 0.0 | 2.6 | 0.00 | 0.04 | 0.04 | 90 | 1016.8 |
| 20260503213028 | 57 | 303 | 0.0 | 0.0 | 0.00 | 0.04 | 0.04 | 91 | 1017.0 |
| 20260503211530 | 57 | 314 | 0.0 | 0.0 | 0.01 | 0.04 | 0.04 | 91 | 1016.8 |
| 20260503210027 | 57 | 313 | 0.0 | 0.0 | 0.02 | 0.04 | 0.04 | 91 | 1017.0 |
| 20260503204526 | 56 | 308 | 0.9 | 5.2 | 0.02 | 0.04 | 0.04 | 90 | 1017.1 |
| 20260503203025 | 57 | 355 | 0.0 | 5.2 | 0.02 | 0.04 | 0.04 | 89 | 1017.2 |
| 20260503201524 | 58 | 319 | 0.0 | 0.0 | 0.02 | 0.03 | 0.03 | 90 | 1017.2 |
| 20260503200022 | 58 | 319 | 0.0 | 0.0 | 0.01 | 0.02 | 0.02 | 90 | 1017.1 |
| 20260503194521 | 58 | 319 | 0.0 | 0.0 | 0.01 | 0.02 | 0.02 | 89 | 1017.0 |
| 20260503193020 | 58 | 350 | 0.0 | 0.0 | 0.01 | 0.02 | 0.02 | 89 | 1016.7 |
| 20260503191530 | 58 | 350 | 0.0 | 0.0 | 0.00 | 0.01 | 0.01 | 89 | 1016.6 |
| 20260503190018 | 58 | 360 | 0.0 | 4.3 | 0.01 | 0.01 | 0.01 | 88 | 1016.6 |
| 20260503184516 | 59 | 48 | 0.0 | 0.0 | 0.01 | 0.01 | 0.01 | 88 | 1016.5 |
| 20260503183016 | 59 | 48 | 0.0 | 0.0 | 0.01 | 0.01 | 0.01 | 88 | 1016.8 |
| 20260503181515 | 59 | 318 | 0.0 | 0.0 | 0.01 | 0.01 | 0.01 | 88 | 1016.6 |
| 20260503180015 | 59 | 317 | 0.0 | 0.0 | 0.00 | 0.00 | 0.00 | 87 | 1016.6 |
| 20260503174514 | 59 | 343 | 0.0 | 0.0 | 0.00 | 0.00 | 0.00 | 87 | 1016.7 |
| 20260503173014 | 59 | 81 | 2.6 | 7.8 | 0.00 | 0.00 | 0.00 | 87 | 1016.4 |
| 20260503171513 | 59 | 98 | 0.0 | 10.4 | 0.00 | 0.00 | 0.00 | 86 | 1016.1 |